Location: Bauerbach
(50.4985°N, 10.3912°E)
Time: 15:47:00
(UTC+00:00)

Cosmos 2074 Rocket - Pass Details

Date: 13 January 2026
Orbit: 966 x 986 km, 82.9° (Epoch: 9 February)

Event Time Altitude Azimuth Distance (km) Brightness Sun altitude
Rises 04:52:24 0° 178° (S) 3,681 7.1 -21.8°
Reaches altitude 10° 04:54:54 10° 176° (S) 2,738 6.5 -21.4°
Maximum altitude 05:01:08 69° 95° (E) 1,053 4.3 -20.4°
Drops below altitude 10° 05:07:24 10° 14° (NNE) 2,753 6.4 -19.5°
Sets 05:09:56 0° 12° (NNE) 3,703 7.1 -19.1°
